• In Latvia
  • List of Countries
  • For 7 days
  • Water Temperature
  • Satellite Maps
  • Weather Map
  • Weather Widgets
  • user-avatar
    Login

    Hourly Weather Escaldes-Engordany

    Today, 29 June, Thursday

    Time Temperature Precipitation Wind Pressure Humidity
    00:00 +8°C° 0 mm 1 mps 633 mmHg 89%
    01:00 +8°C° 0 mm 1 mps 633 mmHg 90%
    02:00 +7°C° 0 mm 1 mps 632 mmHg 91%
    03:00 +7°C° 0 mm 1 mps 632 mmHg 91%
    04:00 +7°C° 0 mm 1 mps 633 mmHg 89%
    05:00 +8°C° 0 mm 1 mps 633 mmHg 87%
    06:00 +9°C° 0 mm 1 mps 634 mmHg 82%
    07:00 +10°C° 0 mm 1 mps 634 mmHg 76%
    08:00 +10°C° 0 mm 2 mps 635 mmHg 70%
    09:00 +12°C° 0 mm 2 mps 635 mmHg 64%
    10:00 +12°C° 0.2 mm 3 mps 636 mmHg 59%
    11:00 +13°C° 0.2 mm 3 mps 636 mmHg 54%
    12:00 +13°C° 0.2 mm 4 mps 636 mmHg 50%
    13:00 +13°C° 0.4 mm 4 mps 636 mmHg 51%
    14:00 +13°C° 0.4 mm 4 mps 636 mmHg 52%
    15:00 +13°C° 0.4 mm 4 mps 636 mmHg 53%
    16:00 +12°C° 0.5 mm 3 mps 636 mmHg 57%
    17:00 +12°C° 0.5 mm 3 mps 635 mmHg 61%
    18:00 +12°C° 0.5 mm 2 mps 635 mmHg 65%
    19:00 +9°C° 0.2 mm 2 mps 635 mmHg 72%
    20:00 +7°C° 0.2 mm 1 mps 634 mmHg 78%
    21:00 +5°C° 0.2 mm 1 mps 634 mmHg 85%
    22:00 +5°C° 0 mm 1 mps 634 mmHg 86%
    23:00 +4°C° 0 mm 1 mps 634 mmHg 87%

    Tomorrow, 30 June, Friday

    Time Temperature Precipitation Wind Pressure Humidity
    00:00 +4°C° 0 mm 1 mps 634 mmHg 88%
    01:00 +3°C° 0 mm 1 mps 634 mmHg 88%
    02:00 +3°C° 0 mm 1 mps 634 mmHg 88%
    03:00 +3°C° 0 mm 1 mps 633 mmHg 89%
    04:00 +4°C° 0 mm 1 mps 634 mmHg 84%
    05:00 +6°C° 0 mm 1 mps 635 mmHg 80%
    06:00 +7°C° 0 mm 1 mps 636 mmHg 76%
    07:00 +9°C° 0 mm 1 mps 637 mmHg 65%
    08:00 +10°C° 0 mm 2 mps 638 mmHg 54%
    09:00 +13°C° 0 mm 2 mps 638 mmHg 43%
    10:00 +14°C° 0.1 mm 2 mps 639 mmHg 43%
    11:00 +14°C° 0.1 mm 3 mps 639 mmHg 43%
    12:00 +14°C° 0.1 mm 3 mps 639 mmHg 43%
    13:00 +14°C° 0.7 mm 3 mps 639 mmHg 50%
    14:00 +13°C° 0.7 mm 3 mps 639 mmHg 58%
    15:00 +12°C° 0.7 mm 3 mps 639 mmHg 65%
    16:00 +12°C° 0.6 mm 3 mps 639 mmHg 68%
    17:00 +11°C° 0.6 mm 3 mps 639 mmHg 71%
    18:00 +11°C° 0.6 mm 3 mps 638 mmHg 74%
    19:00 +9°C° 0.1 mm 2 mps 638 mmHg 78%
    20:00 +8°C° 0.1 mm 2 mps 638 mmHg 83%
    21:00 +6°C° 0.1 mm 2 mps 638 mmHg 88%
    22:00 +7°C° 0 mm 1 mps 638 mmHg 88%
    23:00 +6°C° 0 mm 1 mps 638 mmHg 89%

    Day after tomorrow, 1 July, Saturday

    Time Temperature Precipitation Wind Pressure Humidity
    00:00 +6°C° 0 mm 1 mps 638 mmHg 89%
    01:00 +6°C° 0 mm 1 mps 638 mmHg 89%
    02:00 +6°C° 0 mm 1 mps 638 mmHg 88%
    03:00 +6°C° 0 mm 1 mps 638 mmHg 88%
    04:00 +6°C° 0 mm 1 mps 639 mmHg 86%
    05:00 +7°C° 0 mm 1 mps 639 mmHg 83%
    06:00 +8°C° 0 mm 1 mps 640 mmHg 80%
    07:00 +10°C° 0 mm 1 mps 640 mmHg 73%
    08:00 +12°C° 0 mm 1 mps 641 mmHg 66%
    09:00 +13°C° 0 mm 1 mps 642 mmHg 58%
    10:00 +14°C° 0.3 mm 1 mps 642 mmHg 60%
    11:00 +14°C° 0.3 mm 2 mps 642 mmHg 61%
    12:00 +14°C° 0.3 mm 2 mps 642 mmHg 62%
    13:00 +14°C° 0.9 mm 2 mps 641 mmHg 65%
    14:00 +14°C° 0.9 mm 2 mps 641 mmHg 68%
    15:00 +13°C° 0.9 mm 3 mps 641 mmHg 71%
    16:00 +12°C° 0.3 mm 3 mps 641 mmHg 72%
    17:00 +12°C° 0.3 mm 3 mps 641 mmHg 73%
    18:00 +12°C° 0.3 mm 3 mps 641 mmHg 74%
    19:00 +10°C° 0.1 mm 3 mps 641 mmHg 78%
    20:00 +9°C° 0.1 mm 3 mps 641 mmHg 83%
    21:00 +8°C° 0.1 mm 3 mps 642 mmHg 87%
    22:00 +8°C° 0.2 mm 3 mps 642 mmHg 87%
    23:00 +8°C° 0.2 mm 3 mps 642 mmHg 87%

    2 July, Sunday

    Time Temperature Precipitation Wind Pressure Humidity
    00:00 +8°C° 0.2 mm 2 mps 642 mmHg 87%
    01:00 +8°C° 0.2 mm 2 mps 642 mmHg 87%
    02:00 +8°C° 0.2 mm 2 mps 642 mmHg 87%
    03:00 +8°C° 0.2 mm 2 mps 642 mmHg 88%
    04:00 +9°C° 0.3 mm 2 mps 642 mmHg 87%
    05:00 +9°C° 0.3 mm 2 mps 643 mmHg 87%
    06:00 +9°C° 0.3 mm 2 mps 643 mmHg 87%
    07:00 +10°C° 0.2 mm 2 mps 644 mmHg 84%
    08:00 +11°C° 0.2 mm 3 mps 644 mmHg 81%
    09:00 +12°C° 0.2 mm 3 mps 644 mmHg 78%
    10:00 +13°C° 0 mm 3 mps 645 mmHg 71%
    11:00 +16°C° 0 mm 3 mps 645 mmHg 65%
    12:00 +17°C° 0 mm 3 mps 646 mmHg 58%
    13:00 +18°C° 0 mm 3 mps 646 mmHg 55%
    14:00 +19°C° 0 mm 3 mps 646 mmHg 52%
    15:00 +20°C° 0 mm 3 mps 646 mmHg 48%
    16:00 +19°C° 0 mm 3 mps 646 mmHg 53%
    17:00 +18°C° 0 mm 3 mps 646 mmHg 58%
    18:00 +17°C° 0 mm 3 mps 645 mmHg 63%
    19:00 +14°C° 0 mm 3 mps 645 mmHg 71%
    20:00 +12°C° 0 mm 2 mps 645 mmHg 79%
    21:00 +9°C° 0 mm 2 mps 645 mmHg 88%
    22:00 +9°C° 0 mm 2 mps 644 mmHg 88%
    23:00 +9°C° 0 mm 2 mps 644 mmHg 87%

    3 July, Monday

    Time Temperature Precipitation Wind Pressure Humidity
    00:00 +8°C° 0 mm 2 mps 644 mmHg 87%
    01:00 +8°C° 0 mm 2 mps 644 mmHg 87%
    02:00 +8°C° 0 mm 2 mps 644 mmHg 86%
    03:00 +8°C° 0 mm 2 mps 644 mmHg 86%
    04:00 +9°C° 0 mm 2 mps 644 mmHg 82%
    05:00 +10°C° 0 mm 2 mps 644 mmHg 79%
    06:00 +12°C° 0 mm 2 mps 645 mmHg 75%
    07:00 +14°C° 0 mm 2 mps 646 mmHg 67%
    08:00 +18°C° 0 mm 1 mps 647 mmHg 58%
    09:00 +20°C° 0 mm 1 mps 647 mmHg 50%
    10:00 +21°C° 0 mm 1 mps 648 mmHg 48%
    11:00 +23°C° 0 mm 1 mps 648 mmHg 45%
    12:00 +24°C° 0 mm 1 mps 648 mmHg 42%
    13:00 +24°C° 0 mm 2 mps 647 mmHg 43%
    14:00 +24°C° 0 mm 2 mps 647 mmHg 45%
    15:00 +24°C° 0 mm 2 mps 647 mmHg 46%
    16:00 +23°C° 0 mm 2 mps 646 mmHg 52%
    17:00 +22°C° 0 mm 1 mps 646 mmHg 58%
    18:00 +21°C° 0 mm 1 mps 645 mmHg 64%
    19:00 +18°C° 0 mm 1 mps 645 mmHg 73%
    20:00 +15°C° 0 mm 1 mps 644 mmHg 83%
    21:00 +11°C° 0 mm 0 mps 643 mmHg 92%
    22:00 +10°C° 0 mm 0 mps 643 mmHg 92%
    23:00 +10°C° 0 mm 0 mps 642 mmHg 93%

    4 July, Tuesday

    Time Temperature Precipitation Wind Pressure Humidity
    00:00 +9°C° 0 mm 0 mps 642 mmHg 94%
    01:00 +9°C° 0 mm 0 mps 642 mmHg 94%
    02:00 +9°C° 0 mm 0 mps 641 mmHg 94%
    03:00 +8°C° 0 mm 0 mps 641 mmHg 94%
    04:00 +10°C° 0 mm 0 mps 642 mmHg 89%
    05:00 +13°C° 0 mm 0 mps 643 mmHg 84%
    06:00 +16°C° 0 mm 1 mps 643 mmHg 80%
    07:00 +19°C° 0 mm 1 mps 644 mmHg 70%
    08:00 +21°C° 0 mm 1 mps 645 mmHg 61%
    09:00 +23°C° 0 mm 2 mps 645 mmHg 51%
    10:00 +24°C° 0 mm 2 mps 645 mmHg 49%
    11:00 +24°C° 0 mm 2 mps 645 mmHg 46%
    12:00 +25°C° 0 mm 2 mps 645 mmHg 43%
    13:00 +25°C° 0 mm 2 mps 645 mmHg 42%
    14:00 +26°C° 0 mm 2 mps 645 mmHg 42%
    15:00 +26°C° 0 mm 2 mps 645 mmHg 41%
    16:00 +25°C° 0 mm 2 mps 644 mmHg 45%
    17:00 +24°C° 0 mm 2 mps 644 mmHg 50%
    18:00 +23°C° 0 mm 2 mps 643 mmHg 54%
    19:00 +19°C° 0 mm 2 mps 642 mmHg 64%
    20:00 +16°C° 0 mm 1 mps 642 mmHg 74%
    21:00 +14°C° 0 mm 1 mps 641 mmHg 84%
    22:00 +13°C° 0 mm 1 mps 641 mmHg 84%
    23:00 +13°C° 0 mm 1 mps 640 mmHg 83%
    Show more